Time,TemperatureF,DewpointF,PressureIn,WindDirection,WindDirectionDegrees,WindSpeedMPH,WindSpeedGustMPH,Humidity,HourlyPrecipIn,Conditions,Clouds,dailyrainin,SoftwareType,DateUTC
2013-08-06 00:00:00,83.2,72.4,29.93,ESE,112,1.0,1.0,70,0.00,,,0.00,Wunderground v.1.15,2013-08-06 05:00:00,
2013-08-06 00:05:00,83.0,72.2,29.93,ESE,123,1.0,1.0,70,0.00,,,0.00,Wunderground v.1.15,2013-08-06 05:05:00,
2013-08-06 00:10:00,82.9,72.1,29.93,SE,131,0.0,0.0,70,0.00,,,0.00,Wunderground v.1.15,2013-08-06 05:10:00,
2013-08-06 00:20:00,82.7,71.9,29.93,SE,132,0.0,0.0,70,0.00,,,0.00,Wunderground v.1.15,2013-08-06 05:20:00,
2013-08-06 00:24:00,82.6,71.8,29.93,SE,132,0.0,0.0,70,0.00,,,0.00,Wunderground v.1.15,2013-08-06 05:24:00,
2013-08-06 00:30:00,82.4,72.0,29.93,ESE,104,0.0,1.0,71,0.00,,,0.00,Wunderground v.1.15,2013-08-06 05:30:00,
2013-08-06 00:40:00,82.1,71.8,29.93,ESE,113,1.0,1.0,71,0.00,,,0.00,Wunderground v.1.15,2013-08-06 05:40:00,
2013-08-06 00:50:00,81.7,71.8,29.93,ESE,123,1.0,1.0,72,0.00,,,0.00,Wunderground v.1.15,2013-08-06 05:50:00,
2013-08-06 01:00:00,81.4,71.5,29.92,ESE,106,1.0,1.0,72,0.00,,,0.00,Wunderground v.1.15,2013-08-06 06:00:00,
2013-08-06 01:10:00,81.2,71.7,29.92,ESE,110,1.0,1.0,73,0.00,,,0.00,Wunderground v.1.15,2013-08-06 06:10:00,
2013-08-06 01:20:00,80.8,71.7,29.93,East,101,1.0,1.0,74,0.00,,,0.00,Wunderground v.1.15,2013-08-06 06:20:00,
2013-08-06 01:29:00,80.5,71.8,29.93,ESE,108,0.0,0.0,75,0.00,,,0.00,Wunderground v.1.15,2013-08-06 06:29:00,
2013-08-06 01:35:00,80.3,72.0,29.92,East,91,0.0,0.0,76,0.00,,,0.00,Wunderground v.1.15,2013-08-06 06:35:00,
2013-08-06 01:45:00,80.0,72.1,29.92,ESE,113,0.0,0.0,77,0.00,,,0.00,Wunderground v.1.15,2013-08-06 06:45:00,
2013-08-06 01:55:00,79.8,72.3,29.92,ESE,114,0.0,1.0,78,0.00,,,0.00,Wunderground v.1.15,2013-08-06 06:55:00,
2013-08-06 02:05:00,79.5,72.4,29.92,ESE,118,0.0,1.0,79,0.00,,,0.00,Wunderground v.1.15,2013-08-06 07:05:00,
2013-08-06 02:10:00,79.4,72.3,29.92,ESE,119,0.0,1.0,79,0.00,,,0.00,Wunderground v.1.15,2013-08-06 07:10:00,
2013-08-06 02:20:00,79.2,72.5,29.92,SE,130,0.0,0.0,80,0.00,,,0.00,Wunderground v.1.15,2013-08-06 07:20:00,
2013-08-06 02:30:00,78.9,72.2,29.92,SE,136,0.0,0.0,80,0.00,,,0.00,Wunderground v.1.15,2013-08-06 07:30:00,
2013-08-06 02:40:00,78.6,72.3,29.92,NNW,345,0.0,0.0,81,0.00,,,0.00,Wunderground v.1.15,2013-08-06 07:40:00,
2013-08-06 02:50:00,78.5,72.2,29.92,SSW,198,0.0,0.0,81,0.00,,,0.00,Wunderground v.1.15,2013-08-06 07:50:00,
2013-08-06 03:00:00,78.3,72.0,29.92,SW,220,0.0,0.0,81,0.00,,,0.00,Wunderground v.1.15,2013-08-06 08:00:00,
2013-08-06 03:10:00,78.1,72.2,29.92,SE,137,0.0,0.0,82,0.00,,,0.00,Wunderground v.1.15,2013-08-06 08:10:00,
2013-08-06 03:20:00,78.0,72.1,29.92,SW,224,0.0,0.0,82,0.00,,,0.00,Wunderground v.1.15,2013-08-06 08:20:00,
2013-08-06 03:30:00,77.9,72.0,29.92,SW,232,0.0,0.0,82,0.00,,,0.00,Wunderground v.1.15,2013-08-06 08:30:00,
2013-08-06 03:40:00,77.8,72.2,29.92,SSW,204,0.0,1.0,83,0.00,,,0.00,Wunderground v.1.15,2013-08-06 08:40:00,
2013-08-06 03:50:00,77.6,72.0,29.92,East,82,0.0,1.0,83,0.00,,,0.00,Wunderground v.1.15,2013-08-06 08:50:00,
2013-08-06 03:59:00,77.5,72.3,29.92,South,176,0.0,0.0,84,0.00,,,0.00,Wunderground v.1.15,2013-08-06 08:59:00,
2013-08-06 04:05:00,77.3,72.1,29.92,SW,215,0.0,1.0,84,0.00,,,0.00,Wunderground v.1.15,2013-08-06 09:05:00,
2013-08-06 04:15:00,77.2,72.3,29.92,WSW,245,0.0,0.0,85,0.00,,,0.00,Wunderground v.1.15,2013-08-06 09:15:00,
2013-08-06 04:25:00,77.1,72.6,29.92,West,259,0.0,0.0,86,0.00,,,0.00,Wunderground v.1.15,2013-08-06 09:25:00,
2013-08-06 04:35:00,77.2,73.0,29.92,ESE,122,1.0,1.0,87,0.00,,,0.00,Wunderground v.1.15,2013-08-06 09:35:00,
2013-08-06 04:45:00,77.1,73.3,29.92,ESE,115,0.0,1.0,88,0.00,,,0.00,Wunderground v.1.15,2013-08-06 09:45:00,
2013-08-06 04:54:00,76.9,73.1,29.92,SW,219,0.0,0.0,88,0.00,,,0.00,Wunderground v.1.15,2013-08-06 09:54:00,
2013-08-06 05:00:00,76.8,73.3,29.92,WSW,249,0.0,1.0,89,0.00,,,0.00,Wunderground v.1.15,2013-08-06 10:00:00,
2013-08-06 05:10:00,76.7,73.2,29.92,West,261,0.0,0.0,89,0.00,,,0.00,Wunderground v.1.15,2013-08-06 10:10:00,
2013-08-06 05:15:00,76.6,73.4,29.92,ESE,104,0.0,1.0,90,0.00,,,0.00,Wunderground v.1.15,2013-08-06 10:15:00,
2013-08-06 05:25:00,76.5,73.3,29.92,SW,225,0.0,0.0,90,0.00,,,0.00,Wunderground v.1.15,2013-08-06 10:25:00,
2013-08-06 05:35:00,76.5,73.7,29.92,SW,225,0.0,0.0,91,0.00,,,0.00,Wunderground v.1.15,2013-08-06 10:35:00,
2013-08-06 05:44:00,76.4,73.6,29.92,SE,125,0.0,0.0,91,0.00,,,0.00,Wunderground v.1.15,2013-08-06 10:44:00,
2013-08-06 05:50:00,76.5,73.7,29.92,SE,126,0.0,0.0,91,0.00,,,0.00,Wunderground v.1.15,2013-08-06 10:50:00,
2013-08-06 06:00:00,76.4,73.6,29.92,SE,125,0.0,0.0,91,0.00,,,0.00,Wunderground v.1.15,2013-08-06 11:00:00,
2013-08-06 06:10:00,76.3,73.5,29.92,SE,125,0.0,0.0,91,0.00,,,0.00,Wunderground v.1.15,2013-08-06 11:10:00,
2013-08-06 06:20:00,76.3,73.8,29.92,ESE,111,0.0,0.0,92,0.00,,,0.00,Wunderground v.1.15,2013-08-06 11:20:00,
2013-08-06 06:30:00,76.1,73.6,29.92,NE,41,0.0,0.0,92,0.00,,,0.00,Wunderground v.1.15,2013-08-06 11:30:00,
2013-08-06 06:39:00,76.1,73.9,29.92,NE,41,0.0,0.0,93,0.00,,,0.00,Wunderground v.1.15,2013-08-06 11:39:00,
2013-08-06 06:45:00,76.0,73.8,29.92,NE,44,0.0,0.0,93,0.00,,,0.00,Wunderground v.1.15,2013-08-06 11:45:00,
2013-08-06 06:55:00,76.2,74.0,29.92,ESE,102,0.0,0.0,93,0.00,,,0.00,Wunderground v.1.15,2013-08-06 11:55:00,
2013-08-06 07:05:00,76.5,74.3,29.92,WSW,257,0.0,1.0,93,0.00,,,0.00,Wunderground v.1.15,2013-08-06 12:05:00,
2013-08-06 07:15:00,76.7,74.5,29.92,West,270,0.0,0.0,93,0.00,,,0.00,Wunderground v.1.15,2013-08-06 12:15:00,
2013-08-06 07:24:00,76.9,74.4,29.93,SE,139,0.0,1.0,92,0.00,,,0.00,Wunderground v.1.15,2013-08-06 12:24:00,
2013-08-06 07:30:00,77.0,74.5,29.93,WSW,240,0.0,0.0,92,0.00,,,0.00,Wunderground v.1.15,2013-08-06 12:30:00,
2013-08-06 07:39:00,77.2,74.7,29.93,West,277,0.0,0.0,92,0.00,,,0.00,Wunderground v.1.15,2013-08-06 12:39:00,
2013-08-06 07:45:00,77.4,74.6,29.93,ESE,104,0.0,0.0,91,0.00,,,0.00,Wunderground v.1.15,2013-08-06 12:45:00,
2013-08-06 07:55:00,77.6,74.8,29.93,SSE,166,0.0,0.0,91,0.00,,,0.00,Wunderground v.1.15,2013-08-06 12:55:00,
2013-08-06 08:05:00,77.9,74.7,29.94,SSW,205,0.0,1.0,90,0.00,,,0.00,Wunderground v.1.15,2013-08-06 13:05:00,
2013-08-06 08:15:00,78.2,75.0,29.94,West,261,0.0,0.0,90,0.00,,,0.00,Wunderground v.1.15,2013-08-06 13:15:00,
2013-08-06 08:20:00,78.4,74.9,29.95,ENE,63,0.0,0.0,89,0.00,,,0.00,Wunderground v.1.15,2013-08-06 13:20:00,
2013-08-06 08:30:00,78.7,75.2,29.95,ESE,108,1.0,2.0,89,0.00,,,0.00,Wunderground v.1.15,2013-08-06 13:30:00,
2013-08-06 08:40:00,79.2,75.3,29.94,West,266,1.0,2.0,88,0.00,,,0.00,Wunderground v.1.15,2013-08-06 13:40:00,
2013-08-06 08:50:00,79.7,75.1,29.94,West,276,1.0,1.0,86,0.00,,,0.00,Wunderground v.1.15,2013-08-06 13:50:00,
2013-08-06 09:00:00,80.3,74.7,29.94,East,98,1.0,2.0,83,0.00,,,0.00,Wunderground v.1.15,2013-08-06 14:00:00,
2013-08-06 09:10:00,80.7,75.1,29.94,ESE,104,1.0,3.0,83,0.00,,,0.00,Wunderground v.1.15,2013-08-06 14:10:00,
2013-08-06 09:15:00,80.7,74.7,29.95,ESE,109,1.0,3.0,82,0.00,,,0.00,Wunderground v.1.15,2013-08-06 14:15:00,
2013-08-06 09:25:00,81.0,75.0,29.94,SSW,205,2.0,2.0,82,0.00,,,0.00,Wunderground v.1.15,2013-08-06 14:25:00,
2013-08-06 09:35:00,82.0,75.2,29.95,SW,218,1.0,2.0,80,0.00,,,0.00,Wunderground v.1.15,2013-08-06 14:35:00,
2013-08-06 09:45:00,82.3,75.1,29.95,WNW,302,1.0,1.0,79,0.00,,,0.00,Wunderground v.1.15,2013-08-06 14:45:00,
2013-08-06 09:55:00,82.5,74.9,29.95,SW,222,1.0,2.0,78,0.00,,,0.00,Wunderground v.1.15,2013-08-06 14:55:00,
2013-08-06 10:05:00,82.7,74.4,29.95,SE,145,1.0,2.0,76,0.00,,,0.00,Wunderground v.1.15,2013-08-06 15:05:00,
2013-08-06 10:15:00,83.2,74.8,29.95,West,266,1.0,2.0,76,0.00,,,0.00,Wunderground v.1.15,2013-08-06 15:15:00,
2013-08-06 10:25:00,84.0,74.4,29.94,WNW,282,2.0,3.0,73,0.00,,,0.00,Wunderground v.1.15,2013-08-06 15:25:00,
2013-08-06 10:35:00,84.5,74.9,29.94,SSW,205,2.0,2.0,73,0.00,,,0.00,Wunderground v.1.15,2013-08-06 15:35:00,
2013-08-06 10:45:00,85.5,75.0,29.95,East,97,1.0,2.0,71,0.00,,,0.00,Wunderground v.1.15,2013-08-06 15:45:00,
2013-08-06 10:55:00,86.2,75.3,29.94,SSW,202,1.0,2.0,70,0.00,,,0.00,Wunderground v.1.15,2013-08-06 15:55:00,
2013-08-06 11:04:00,86.7,74.9,29.94,SSW,212,1.0,1.0,68,0.00,,,0.00,Wunderground v.1.15,2013-08-06 16:04:00,
2013-08-06 11:10:00,86.9,74.6,29.94,West,266,2.0,2.0,67,0.00,,,0.00,Wunderground v.1.15,2013-08-06 16:10:00,
2013-08-06 11:20:00,87.7,74.9,29.94,SW,228,2.0,2.0,66,0.00,,,0.00,Wunderground v.1.15,2013-08-06 16:20:00,
2013-08-06 11:30:00,88.6,75.3,29.94,SW,218,1.0,1.0,65,0.00,,,0.00,Wunderground v.1.15,2013-08-06 16:30:00,
2013-08-06 11:40:00,89.2,74.5,29.94,East,97,1.0,1.0,62,0.00,,,0.00,Wunderground v.1.15,2013-08-06 16:40:00,
2013-08-06 11:45:00,89.6,74.9,29.94,WSW,243,2.0,2.0,62,0.00,,,0.00,Wunderground v.1.15,2013-08-06 16:45:00,
2013-08-06 11:55:00,90.3,75.0,29.94,SSE,155,2.0,2.0,61,0.00,,,0.00,Wunderground v.1.15,2013-08-06 16:55:00,
2013-08-06 12:05:00,90.9,75.1,29.94,ENE,59,2.0,2.0,60,0.00,,,0.00,Wunderground v.1.15,2013-08-06 17:05:00,
2013-08-06 12:15:00,91.8,73.9,29.94,SSW,200,1.0,2.0,56,0.00,,,0.00,Wunderground v.1.15,2013-08-06 17:15:00,
2013-08-06 12:24:00,92.6,75.1,29.93,WNW,289,1.0,1.0,57,0.00,,,0.00,Wunderground v.1.15,2013-08-06 17:24:00,
2013-08-06 12:30:00,93.4,74.8,29.93,ENE,71,1.0,1.0,55,0.00,,,0.00,Wunderground v.1.15,2013-08-06 17:30:00,
2013-08-06 12:35:00,93.8,74.1,29.93,South,189,1.0,1.0,53,0.00,,,0.00,Wunderground v.1.15,2013-08-06 17:35:00,
2013-08-06 12:45:00,94.4,74.1,29.93,SW,228,1.0,2.0,52,0.00,,,0.00,Wunderground v.1.15,2013-08-06 17:45:00,
2013-08-06 12:55:00,94.9,74.5,29.92,ESE,105,2.0,4.0,52,0.00,,,0.00,Wunderground v.1.15,2013-08-06 17:55:00,
2013-08-06 13:05:00,95.6,73.4,29.92,WSW,257,2.0,2.0,49,0.00,,,0.00,Wunderground v.1.15,2013-08-06 18:05:00,
2013-08-06 13:15:00,95.8,74.2,29.91,SW,235,2.0,2.0,50,0.00,,,0.00,Wunderground v.1.15,2013-08-06 18:15:00,
2013-08-06 13:25:00,97.0,72.8,29.91,WSW,257,1.0,4.0,46,0.00,,,0.00,Wunderground v.1.15,2013-08-06 18:25:00,
2013-08-06 13:34:00,97.4,72.5,29.90,North,358,2.0,3.0,45,0.00,,,0.00,Wunderground v.1.15,2013-08-06 18:34:00,
2013-08-06 13:40:00,98.0,72.4,29.90,ESE,115,1.0,1.0,44,0.00,,,0.00,Wunderground v.1.15,2013-08-06 18:40:00,
2013-08-06 13:50:00,98.4,72.7,29.90,West,266,2.0,2.0,44,0.00,,,0.00,Wunderground v.1.15,2013-08-06 18:50:00,
2013-08-06 14:00:00,98.6,72.2,29.89,West,274,2.0,2.0,43,0.00,,,0.00,Wunderground v.1.15,2013-08-06 19:00:00,
2013-08-06 14:10:00,98.6,72.2,29.89,SE,128,2.0,3.0,43,0.00,,,0.00,Wunderground v.1.15,2013-08-06 19:10:00,
2013-08-06 14:20:00,99.1,72.0,29.89,SW,217,2.0,3.0,42,0.00,,,0.00,Wunderground v.1.15,2013-08-06 19:20:00,
2013-08-06 14:30:00,99.6,73.1,29.88,NNW,332,1.0,1.0,43,0.00,,,0.00,Wunderground v.1.15,2013-08-06 19:30:00,
2013-08-06 14:40:00,100.6,71.9,29.88,WSW,239,2.0,3.0,40,0.00,,,0.00,Wunderground v.1.15,2013-08-06 19:40:00,
2013-08-06 14:50:00,100.5,70.3,29.87,ENE,77,2.0,2.0,38,0.00,,,0.00,Wunderground v.1.15,2013-08-06 19:50:00,
2013-08-06 15:00:00,100.8,71.3,29.87,SW,221,2.0,2.0,39,0.00,,,0.00,Wunderground v.1.15,2013-08-06 20:00:00,
2013-08-06 15:09:00,101.0,71.5,29.86,WNW,284,2.0,2.0,39,0.00,,,0.00,Wunderground v.1.15,2013-08-06 20:09:00,
2013-08-06 15:15:00,101.4,70.3,29.86,SW,218,2.0,2.0,37,0.00,,,0.00,Wunderground v.1.15,2013-08-06 20:15:00,
2013-08-06 15:25:00,102.3,68.6,29.86,SSW,210,2.0,2.0,34,0.00,,,0.00,Wunderground v.1.15,2013-08-06 20:25:00,
2013-08-06 15:35:00,102.8,69.0,29.85,East,101,2.0,2.0,34,0.00,,,0.00,Wunderground v.1.15,2013-08-06 20:35:00,
2013-08-06 15:45:00,102.7,68.1,29.84,SE,129,2.0,4.0,33,0.00,,,0.00,Wunderground v.1.15,2013-08-06 20:45:00,
2013-08-06 15:49:00,102.8,69.0,29.84,SSE,165,2.0,4.0,34,0.00,,,0.00,Wunderground v.1.15,2013-08-06 20:49:00,
2013-08-06 15:55:00,103.4,68.7,29.84,SSW,212,2.0,4.0,33,0.00,,,0.00,Wunderground v.1.15,2013-08-06 20:55:00,
2013-08-06 16:05:00,103.1,69.3,29.84,ESE,113,2.0,3.0,34,0.00,,,0.00,Wunderground v.1.15,2013-08-06 21:05:00,
2013-08-06 16:15:00,103.3,68.6,29.83,SW,221,2.0,2.0,33,0.00,,,0.00,Wunderground v.1.15,2013-08-06 21:15:00,
2013-08-06 16:24:00,103.8,69.0,29.83,South,170,2.0,3.0,33,0.00,,,0.00,Wunderground v.1.15,2013-08-06 21:24:00,
2013-08-06 16:30:00,103.8,67.2,29.83,East,101,2.0,2.0,31,0.00,,,0.00,Wunderground v.1.15,2013-08-06 21:30:00,
2013-08-06 16:40:00,103.7,68.1,29.83,SE,131,2.0,2.0,32,0.00,,,0.00,Wunderground v.1.15,2013-08-06 21:40:00,
2013-08-06 16:50:00,104.2,69.4,29.82,SE,126,2.0,4.0,33,0.00,,,0.00,Wunderground v.1.15,2013-08-06 21:50:00,
2013-08-06 17:00:00,104.0,68.3,29.82,WSW,247,2.0,2.0,32,0.00,,,0.00,Wunderground v.1.15,2013-08-06 22:00:00,
2013-08-06 17:05:00,104.2,68.5,29.82,WNW,282,2.0,2.0,32,0.00,,,0.00,Wunderground v.1.15,2013-08-06 22:05:00,
2013-08-06 17:15:00,104.0,66.4,29.82,SW,219,2.0,3.0,30,0.00,,,0.00,Wunderground v.1.15,2013-08-06 22:15:00,
2013-08-06 17:25:00,104.0,67.4,29.82,ESE,112,2.0,2.0,31,0.00,,,0.00,Wunderground v.1.15,2013-08-06 22:25:00,
2013-08-06 17:35:00,103.6,68.0,29.81,NW,316,2.0,2.0,32,0.00,,,0.00,Wunderground v.1.15,2013-08-06 22:35:00,
2013-08-06 17:45:00,102.6,68.0,29.81,SW,225,2.0,2.0,33,0.00,,,0.00,Wunderground v.1.15,2013-08-06 22:45:00,
2013-08-06 17:55:00,102.3,67.7,29.80,WNW,292,1.0,3.0,33,0.00,,,0.00,Wunderground v.1.15,2013-08-06 22:55:00,
2013-08-06 18:05:00,101.6,68.8,29.80,SSE,148,2.0,3.0,35,0.00,,,0.00,Wunderground v.1.15,2013-08-06 23:05:00,
2013-08-06 18:15:00,101.3,68.6,29.80,East,101,2.0,2.0,35,0.00,,,0.00,Wunderground v.1.15,2013-08-06 23:15:00,
2013-08-06 18:25:00,101.2,67.6,29.80,East,84,1.0,2.0,34,0.00,,,0.00,Wunderground v.1.15,2013-08-06 23:25:00,
2013-08-06 18:30:00,101.0,66.6,29.80,East,96,2.0,2.0,33,0.00,,,0.00,Wunderground v.1.15,2013-08-06 23:30:00,
2013-08-06 18:40:00,100.6,68.0,29.79,ESE,110,2.0,2.0,35,0.00,,,0.00,Wunderground v.1.15,2013-08-06 23:40:00,
2013-08-06 18:50:00,100.6,67.1,29.79,East,99,1.0,1.0,34,0.00,,,0.00,Wunderground v.1.15,2013-08-06 23:50:00,
2013-08-06 18:59:00,100.3,66.0,29.79,SE,135,1.0,1.0,33,0.00,,,0.00,Wunderground v.1.15,2013-08-06 23:59:00,
2013-08-06 19:05:00,100.2,66.8,29.79,ESE,117,1.0,1.0,34,0.00,,,0.00,Wunderground v.1.15,2013-08-07 00:05:00,
2013-08-06 19:15:00,99.8,65.6,29.79,WNW,290,1.0,2.0,33,0.00,,,0.00,Wunderground v.1.15,2013-08-07 00:15:00,
2013-08-06 19:25:00,99.4,66.9,29.79,East,101,1.0,1.0,35,0.00,,,0.00,Wunderground v.1.15,2013-08-07 00:25:00,
2013-08-06 19:35:00,98.9,66.5,29.79,ESE,120,1.0,1.0,35,0.00,,,0.00,Wunderground v.1.15,2013-08-07 00:35:00,
2013-08-06 19:40:00,98.8,65.6,29.78,East,101,0.0,0.0,34,0.00,,,0.00,Wunderground v.1.15,2013-08-07 00:40:00,
2013-08-06 19:50:00,98.2,65.9,29.79,ESE,116,0.0,0.0,35,0.00,,,0.00,Wunderground v.1.15,2013-08-07 00:50:00,
2013-08-06 19:59:00,97.4,66.0,29.79,East,98,1.0,1.0,36,0.00,,,0.00,Wunderground v.1.15,2013-08-07 00:59:00,
2013-08-06 20:05:00,97.0,68.7,29.79,SE,127,1.0,2.0,40,0.00,,,0.00,Wunderground v.1.15,2013-08-07 01:05:00,
2013-08-06 20:14:00,96.0,71.9,29.80,South,172,2.0,2.0,46,0.00,,,0.00,Wunderground v.1.15,2013-08-07 01:14:00,
2013-08-06 20:20:00,95.6,72.2,29.80,ESE,110,1.0,1.0,47,0.00,,,0.00,Wunderground v.1.15,2013-08-07 01:20:00,
2013-08-06 20:30:00,94.8,72.0,29.80,ESE,107,2.0,2.0,48,0.00,,,0.00,Wunderground v.1.15,2013-08-07 01:30:00,
2013-08-06 20:40:00,94.0,72.5,29.81,West,276,2.0,2.0,50,0.00,,,0.00,Wunderground v.1.15,2013-08-07 01:40:00,
2013-08-06 20:50:00,93.2,73.0,29.81,ESE,108,2.0,2.0,52,0.00,,,0.00,Wunderground v.1.15,2013-08-07 01:50:00,
2013-08-06 21:00:00,92.4,73.3,29.81,East,95,2.0,2.0,54,0.00,,,0.00,Wunderground v.1.15,2013-08-07 02:00:00,
2013-08-06 21:10:00,91.6,73.1,29.82,NE,37,2.0,2.0,55,0.00,,,0.00,Wunderground v.1.15,2013-08-07 02:10:00,
2013-08-06 21:20:00,91.0,73.7,29.82,East,99,2.0,2.0,57,0.00,,,0.00,Wunderground v.1.15,2013-08-07 02:20:00,
2013-08-06 21:30:00,90.3,73.5,29.82,SE,138,2.0,2.0,58,0.00,,,0.00,Wunderground v.1.15,2013-08-07 02:30:00,
2013-08-06 21:40:00,89.6,73.9,29.83,WSW,257,1.0,1.0,60,0.00,,,0.00,Wunderground v.1.15,2013-08-07 02:40:00,
2013-08-06 21:50:00,89.0,73.8,29.83,East,100,2.0,2.0,61,0.00,,,0.00,Wunderground v.1.15,2013-08-07 02:50:00,
2013-08-06 22:00:00,88.4,73.7,29.85,SSE,148,1.0,1.0,62,0.00,,,0.00,Wunderground v.1.15,2013-08-07 03:00:00,
2013-08-06 22:10:00,87.8,73.6,29.85,SE,134,2.0,2.0,63,0.00,,,0.00,Wunderground v.1.15,2013-08-07 03:10:00,
2013-08-06 22:19:00,87.3,73.2,29.86,SE,131,2.0,2.0,63,0.00,,,0.00,Wunderground v.1.15,2013-08-07 03:19:00,
2013-08-06 22:25:00,87.0,73.3,29.86,ESE,123,1.0,2.0,64,0.00,,,0.00,Wunderground v.1.15,2013-08-07 03:25:00,
2013-08-06 22:34:00,86.5,73.3,29.87,ESE,115,1.0,2.0,65,0.00,,,0.00,Wunderground v.1.15,2013-08-07 03:34:00,
2013-08-06 22:40:00,86.3,73.1,29.87,SSE,156,1.0,1.0,65,0.00,,,0.00,Wunderground v.1.15,2013-08-07 03:40:00,
2013-08-06 22:50:00,85.9,73.2,29.88,SE,130,2.0,2.0,66,0.00,,,0.00,Wunderground v.1.15,2013-08-07 03:50:00,
2013-08-06 23:00:00,85.5,73.3,29.88,SE,141,1.0,1.0,67,0.00,,,0.00,Wunderground v.1.15,2013-08-07 04:00:00,
2013-08-06 23:05:00,85.2,73.4,29.89,East,93,1.0,1.0,68,0.00,,,0.00,Wunderground v.1.15,2013-08-07 04:05:00,
2013-08-06 23:10:00,85.0,73.7,29.89,SSE,153,1.0,3.0,69,0.00,,,0.00,Wunderground v.1.15,2013-08-07 04:10:00,
2013-08-06 23:15:00,84.7,73.4,29.89,ESE,122,1.0,3.0,69,0.00,,,0.00,Wunderground v.1.15,2013-08-07 04:15:00,
2013-08-06 23:20:00,84.5,73.6,29.89,ESE,120,1.0,1.0,70,0.00,,,0.00,Wunderground v.1.15,2013-08-07 04:20:00,
2013-08-06 23:29:00,84.1,73.7,29.89,SE,134,1.0,1.0,71,0.00,,,0.00,Wunderground v.1.15,2013-08-07 04:29:00,
2013-08-06 23:35:00,84.0,73.6,29.89,East,86,1.0,1.0,71,0.00,,,0.00,Wunderground v.1.15,2013-08-07 04:35:00,
2013-08-06 23:45:00,83.6,73.6,29.89,SE,130,1.0,1.0,72,0.00,,,0.00,Wunderground v.1.15,2013-08-07 04:45:00,
2013-08-06 23:55:00,83.2,73.6,29.90,ESE,104,1.0,1.0,73,0.00,,,0.00,Wunderground v.1.15,2013-08-07 04:55:00,